Flag for Madagascar Weather past 2 weeks in Antananarivo, Madagascar

Now
72 °F

Passing clouds.


Feels Like: 77 °F
Forecast: 49 / 69 °F
Wind: 7 mph from South

Location: Antananarivo / Ivato

Current Time: Aug 2, 2014 at 11:56:35 AM

Latest Report: Aug 2, 2014 at 11:00 AM


Visibility: N/A

Pressure: 30.27 "Hg

Humidity: 47%

Dew point: 50 °F

Location of AntananarivoLocation

Historic Weather in Antananarivo — Graph

°F

Antananarivo temperature yesterday

Maximum temperature yesterday: 73 °F (at 2:30 PM)
Minimum temperature yesterday: 45 °F (at 4:30 AM)
Average temperature yesterday: 58 °F

Past Weeks' High & Low Weather Summary

 TemperatureHumidityPressure
High79 °F (Jul 19, 12:00 PM)100% (Jul 18, 7:00 PM)30.45 "Hg (Jul 18, 7:00 PM)
Low45 °F (Aug 1, 4:30 AM)36% (Aug 1, 3:30 PM)30.21 "Hg (Jul 22, 2:00 PM)
Average60 °F90%30.32 "Hg
* Reported Jul 18 11:00 AM — Aug 2 11:00 AM, Antananarivo, Weather by CustomWeather, © 2014

Note: Actual official high and low records may vary slightly from our data, if they occured in-between our weather recording intervals... More about our weather records

Advertising

Antananarivo weather history for previous 24 hours

 ConditionsComfort  
Time TempWeatherWind HumidityBarometerVisibility
11:00 AM
Aug 2
72 °FPassing clouds.7 mph47%30.27 "HgN/A
10:30 AM70 °FPassing clouds.5 mph53%30.30 "HgN/A
10:00 AM64 °FSunny.2 mph64%30.30 "Hg10 mi
9:30 AM63 °FSunny.2 mph68%30.30 "Hg10 mi
9:00 AM59 °FSunny.3 mph94%30.30 "Hg10 mi
8:30 AM55 °FSunny.1 mph100%30.30 "Hg10 mi
8:00 AM54 °FPassing clouds.2 mph100%30.30 "Hg5 mi
7:30 AM52 °FFog.1 mph100%30.30 "Hg1 mi
7:00 AM45 °FFog.No wind100%30.27 "Hg0 mi
6:30 AM45 °FFog.1 mph100%30.27 "Hg0 mi
6:00 AM46 °FFog.1 mph100%30.27 "Hg0 mi
5:30 AM45 °FFog.No wind100%30.24 "Hg1 mi
5:04 AM46 °FFog.1 mph100%30.24 "Hg2 mi
4:30 AM46 °FFog.No wind100%30.24 "HgN/A
4:00 AM48 °FPassing clouds.No wind100%30.24 "HgN/A
3:30 AM48 °FPassing clouds.1 mph100%30.24 "HgN/A
3:00 AM46 °FPassing clouds.1 mph100%30.24 "HgN/A
2:30 AM48 °FPassing clouds.No wind100%30.24 "HgN/A
2:00 AM50 °FPassing clouds.No wind100%30.24 "HgN/A
1:30 AM52 °FPassing clouds.1 mph100%30.27 "HgN/A
1:00 AM52 °FPassing clouds.1 mph100%30.27 "HgN/A
12:30 AM52 °FPassing clouds.No wind100%30.27 "HgN/A
12:00 AM52 °FPassing clouds.1 mph100%30.27 "HgN/A
11:30 PM
Aug 1
52 °FPassing clouds.1 mph100%30.27 "HgN/A
11:00 PM54 °FPassing clouds.1 mph100%30.27 "HgN/A
10:30 PM54 °FPassing clouds.3 mph100%30.27 "HgN/A
10:00 PM55 °FPassing clouds.5 mph100%30.27 "HgN/A
9:30 PM55 °FPassing clouds.7 mph100%30.27 "HgN/A
9:00 PM55 °FPassing clouds.6 mph100%30.27 "HgN/A
8:30 PM57 °FPassing clouds.6 mph100%30.27 "HgN/A
8:00 PM59 °FPassing clouds.10 mph94%30.24 "HgN/A
7:30 PM57 °FPassing clouds.3 mph72%30.24 "HgN/A
7:00 PM61 °FPassing clouds.2 mph63%30.21 "HgN/A
6:30 PM64 °FPassing clouds.7 mph56%30.21 "HgN/A
6:00 PM66 °FPassing clouds.6 mph52%30.21 "HgN/A
5:30 PM68 °FPassing clouds.3 mph49%30.21 "HgN/A
5:00 PM73 °FPassing clouds.3 mph44%30.21 "HgN/A
4:30 PM73 °FPassing clouds.7 mph44%30.21 "HgN/A
4:00 PM73 °FPassing clouds.3 mph41%30.21 "HgN/A
3:30 PM73 °FPassing clouds.3 mph36%30.21 "HgN/A
3:00 PM73 °FPassing clouds.5 mph44%30.21 "HgN/A
2:30 PM73 °FPassing clouds.5 mph44%30.21 "HgN/A
2:00 PM72 °FPassing clouds.6 mph47%30.21 "HgN/A
1:30 PM72 °FPassing clouds.2 mph47%30.24 "HgN/A
1:00 PM72 °FPassing clouds.3 mph53%30.24 "HgN/A
12:30 PM72 °FPassing clouds.6 mph53%30.24 "HgN/A
12:00 PM68 °FPassing clouds.2 mph64%30.27 "HgN/A
11:30 AM66 °FPassing clouds.5 mph68%30.27 "HgN/A
11:00 AM66 °FPassing clouds.1 mph73%30.30 "HgN/A
Weather by CustomWeather, © 2014

See weather overviewHow to use our weather pages